XW-2E
1 40909U 15049L 22335.84844074 .00010884 00000-0 41123-3 0 9990
2 40909 97.4632 343.3020 0013097 101.3025 336.4354 15.27087456398926
XW-2F
1 40910U 15049M 22335.83549988 .00010763 00000-0 41340-3 0 9994
2 40910 97.4716 342.4684 0013877 102.7412 336.1950 15.26534980398688
XW-2B
1 40911U 15049N 22335.85912402 .00006488 00000-0 28785-3 0 9999
2 40911 97.4930 338.8670 0013637 124.3472 320.0015 15.21845559398294
DCBB
1 40912U 15049P 22335.87592917 .00012856 00000-0 44146-3 0 9992
2 40912 97.4324 346.8660 0013869 70.9253 49.5686 15.30172866399315
TW-1A
1 40928U 15051D 22335.87924975 .00238656 22359-4 83931-3 0 9993
2 40928 97.0126 359.1888 0006852 109.8693 14.4581 15.89124058404496
IO-86
1 40931U 15052B 22335.79371201 .00000943 00000-0 41694-4 0 9999
2 40931 5.9955 55.2503 0013866 17.2646 342.7986 14.76930261388122
AO-85
1 40967U 15058D 22335.47202270 .00001063 00000-0 13229-3 0 5484
2 40967 64.7757 283.4829 0172852 144.4243 216.8580 14.78188152 85342
ATHENOXAT-1
1 41168U 15077C 22335.54011583 .00019201 00000-0 67776-3 0 9991
2 41168 14.9821 287.6567 0007789 74.2396 71.7318 15.26628037385823
ChubuSat-2
1 41338U 16012B 22335.57167051 .00002083 00000-0 14818-3 0 9994
2 41338 31.0043 39.3144 0012931 11.9468 348.1473 15.02095178372629
ChubuSat-3
1 41339U 16012C 22335.58610193 .00001927 00000-0 13659-3 0 9994
2 41339 31.0111 36.1390 0012573 18.9467 130.6134 15.02114583372622
Horyu-4
1 41340U 16012D 22335.76944455 .00003660 00000-0 24842-3 0 9999
2 41340 31.0056 9.7335 0012518 68.5050 291.6920 15.04542627372936
e-st@r-II
1 41459U 16025D 22335.74387504 .00011470 00000-0 44728-3 0 9991
2 41459 98.1924 153.9378 0134303 60.3272 301.1255 15.18060653362832
AAUSAT4
1 41460U 16025E 22335.79135826 .00021286 00000-0 67484-3 0 9996
2 41460 98.1785 162.0058 0108459 29.6400 343.1493 15.27097098363406
LO-87
1 41557U 16033B 22335.91758466 .00017956 00000-0 45283-3 0 9999
2 41557 97.3898 74.4399 0010733 134.2483 335.4789 15.39863129363102
NuSat2
1 41558U 16033C 22335.87173912 .00017042 00000-0 40460-3 0 9990
2 41558 97.4147 81.0716 0010402 123.5108 353.5500 15.41711442363392
Lapan A3
1 41603U 16040E 22335.88399600 .00001355 00000-0 63672-4 0 9995
2 41603 97.1885 5.4968 0011404 296.2235 181.2033 15.21178400357489
Pratham
1 41783U 16059A 22335.32753089 .00000395 00000-0 84406-4 0 9999
2 41783 97.8943 10.0418 0033455 9.0224 351.1572 14.63519321330034
TY-1
1 41844U 16066D 22335.96003274 .00015748 00000-0 46009-3 0 9993
2 41844 97.3839 347.6722 0013695 55.2967 341.7823 15.35292165337269
CAS-2T
1 41847U 16066G 22335.46211824 .00000670 00000-0 10872-3 0 9990
2 41847 98.5319 39.8118 0363639 70.1986 293.8021 14.38928640318363
EO-88
1 42017U 17008BX 22335.18342607 .00027119 00000-0 64751-3 0 9992
2 42017 97.2487 39.3561 0004252 25.5799 334.5658 15.41488849322698
CAS-4B
1 42759U 17034B 22335.86430083 .00002876 00000-0 17081-3 0 9992
2 42759 43.0160 129.0658 0011486 270.2440 242.5301 15.13353199301701
CAS-4A
1 42761U 17034D 22335.89239774 .00003229 00000-0 18974-3 0 9997
2 42761 43.0163 127.5745 0011673 274.0140 249.4193 15.13445241301710
NIUSat
1 42766U 17036B 22335.67799892 .00010191 00000-0 35671-3 0 9991
2 42766 97.1844 7.6762 0014564 91.9418 268.3491 15.29587320302336
Aalto 1
1 42775U 17036L 22335.82708221 .00008413 00000-0 30790-3 0 9995
2 42775 97.1796 7.3930 0013639 91.7366 268.5436 15.28194872302312
URSA MAIOR
1 42776U 17036M 22335.07968829 .00008428 00000-0 30078-3 0 9990
2 42776 97.1808 7.5954 0013277 92.6132 267.6629 15.29024325302246
Max Valier Sat
1 42778U 17036P 22335.08358551 .00009860 00000-0 33929-3 0 9997
2 42778 97.1860 10.5815 0011881 92.4251 267.8350 15.30185687302351
Pegasus
1 42784U 17036V 22335.53632625 .00014500 00000-0 45516-3 0 9993
2 42784 97.1798 12.2852 0011048 90.2113 270.0396 15.33061974302571
NUDATSat
1 42787U 17036Y 22335.94444173 .00029165 00000-0 68817-3 0 9992
2 42787 97.1795 18.3848 0009021 74.8893 285.3354 15.41798111302824
SUCHAI 1
1 42788U 17036Z 22335.09514331 .00018697 00000-0 53419-3 0 9993
2 42788 97.1793 14.0412 0010156 85.3745 274.8659 15.35993957302714
SKCUBE
1 42789U 17036AA 22335.06843236 .00017068 00000-0 50932-3 0 9998
2 42789 97.1794 13.2379 0010338 86.7370 273.5056 15.34643027302581
VZLUSAT 1
1 42790U 17036AB 22335.71680497 .00030741 00000-0 73402-3 0 9990
2 42790 97.1806 18.0747 0008571 75.5921 284.6277 15.41434224302935
VENTA 1
1 42791U 17036AC 22335.58305073 .00014487 00000-0 44994-3 0 9993
2 42791 97.1801 13.4312 0010250 87.3325 272.9091 15.33410575302639
Robusta 1B
1 42792U 17036AD 22335.08058578 .00017997 00000-0 52145-3 0 9990
2 42792 97.1790 13.9754 0009854 86.1320 274.1051 15.35565641302640
D-SAT
1 42794U 17036AF 22335.63001741 .00001988 00000-0 16933-3 0 9991
2 42794 97.4571 332.3472 0119434 244.8847 113.9944 14.93523479296425
TechnoSat
1 42829U 17042E 22335.07100080 .00001392 00000-0 14105-3 0 9999
2 42829 97.4001 179.3629 0014096 163.7341 196.4334 14.92329793292934
AO-91
1 43017U 17073E 22335.74968919 .00005701 00000-0 42111-3 0 9996
2 43017 97.6534 223.0273 0244352 359.7689 0.3373 14.82739556271890
PICSAT
1 43132U 18004X 22335.45849404 .00015638 00000-0 43839-3 0 9992
2 43132 97.3580 51.3221 0008143 117.7667 242.4404 15.36649113272002
AO-92
1 43137U 18004AC 22335.47879226 .00014290 00000-0 44590-3 0 9992
2 43137 97.3537 49.3716 0008329 123.3401 236.8639 15.33286556271900
TianYi 2
1 43155U 18008A 22335.78132811 .00007619 00000-0 37772-3 0 9993
2 43155 97.3310 28.8567 0013678 283.8370 214.9174 15.17932469268635
Zhou Enlai
1 43156U 18008B 22335.74926525 .00008532 00000-0 42383-3 0 9992
2 43156 97.3360 28.7624 0011111 284.5436 212.4439 15.17853866268556
TianYi 6
1 43158U 18008D 22335.84918787 .00006860 00000-0 35584-3 0 9993
2 43158 97.3317 26.4644 0010730 287.5797 124.9369 15.16408823268452
S-Net D
1 43186U 18014G 22335.19867787 .00001953 00000-0 16751-3 0 9995
2 43186 97.6452 237.6816 0011602 98.0489 262.2050 14.98601833263885
S-Net B
1 43187U 18014H 22335.53292223 .00002024 00000-0 17344-3 0 9990
2 43187 97.6449 237.9525 0011661 96.9687 263.2862 14.98600403263934
S-Net A
1 43188U 18014J 22335.53322493 .00002044 00000-0 17511-3 0 9992
2 43188 97.6454 238.0263 0011667 97.0349 263.2201 14.98600809263932
S-Net C
1 43189U 18014K 22335.20043903 .00001934 00000-0 16598-3 0 9994
2 43189 97.6454 237.6127 0011694 97.8844 262.3707 14.98594603262434
FMN 1
1 43192U 18015A 22335.76479897 .00057317 00000-0 95783-3 0 9994
2 43192 97.5519 126.9288 0008995 157.1668 316.7894 15.51695090269251
Shaonian Xing
1 43199U 18015H 22335.75149889 .00024468 00000-0 58890-3 0 9994
2 43199 97.5329 119.9966 0012101 162.0809 310.5782 15.41205829269140
SurfSat
1 43614U 18070B 22335.81855773 .00128189 00000-0 81240-3 0 9990
2 43614 93.0006 170.3848 0008666 64.3270 295.8898 15.76128518237204
CP-7 DAVE
1 43615U 18070C 22335.05186588 .00092476 00000-0 72290-3 0 9992
2 43615 93.0003 169.6424 0009602 71.7198 288.5117 15.71298131237011
